Powrót do katalogu

STARLINK-5316

AktywnyŁącznośćVLEO
NORAD 55305·PAYLOAD·🇺🇸 United States

Wystrzelony Jan 19, 2023 z Vandenberg Space Force Base

Loading…

Następne Przeloty (najbliższe 24 godziny)

TLE

ŚwieżeSource: CelesTrak SupGP

Epoka: Sep 14, 2026, 21:51 UTC

1 55305C 23010AN  26257.91090278  .00061238  00000+0  51319-2 0  2579
2 55305  69.9994 267.5466 0003683 267.8621 250.9128 14.98298650    14

Śledź STARLINK-5316 w czasie rzeczywistym z AllMySat

Download on the App Store